Regional Weather Roundup
Issued by NWS Kansas City/Pleasant Hill, MO

Home | Current Version | Previous Version | Graphics & Text | Print | Product List | Glossary Off
Versions: 1 2 3 4 5 6 7 8 9 10 11 12 13 14 15 16 17 18 19 20 21 22 23 24 25 26 27 28 29 30 31 32 33 34 35 36 37 38 39 40 41 42 43 44 45 46 47 48 49 50

000
ASUS43 KEAX 271010
RWREAX

WEATHER ROUNDUP FOR EASTERN KANSAS AND NORTHWEST MISSOURI
NATIONAL WEATHER SERVICE KANSAS CITY/PLEASANT HILL MO
500 AM CDT MON APR 27 2015

KSZ040-057-103>105-MOZ028-029-037-043-271100-
...KANSAS CITY METROPOLITAN AREA...

CITY           SKY/WX    TMP DP  RH WIND       PRES   REMARKS
K.C. INTL      MOCLDY    44  36  73 NE8       30.06S
K.C. DOWNTOWN  MOCLDY    46  36  68 NE7       30.05S
LEES SUMMIT    CLOUDY    47  36  65 NE9       30.05R
OLATHE - IXD   CLOUDY    47  36  65 E8        30.04S
OLATHE - OJC   CLOUDY    46  36  68 NE9       30.03S
LAWRENCE       CLOUDY    46  36  68 NE9       30.05F

$$

MOZ001>008-011>017-020>025-030>033-038>040-044>046-053-054-271100-
...NORTHERN AND CENTRAL MISSOURI...

CITY           SKY/WX    TMP DP  RH WIND       PRES   REMARKS
ST. JOSEPH     PTCLDY    46  33  60 E6        30.09S
MOSBY          PTSUNNY   45  36  70 NE5       30.07S
WARRENSBURG    CLOUDY    45  36  70 NE7       30.04S
WHITEMAN AFB   PTCLDY    44  36  74 NE8       30.03S
CLINTON        CLOUDY    45  37  76 E3        30.04R
SEDALIA        CLOUDY    45  36  70 NE8       30.05S
WARSAW         NOT AVBL
MARSHALL       MOCLDY    46  37  71 NE7       30.07F
CHILLICOTHE      N/A     39  36  89 CALM      30.10S
MOBERLY        PTCLDY    41  34  75 N5        30.08S
KIRKSVILLE     CLEAR     35  34  96 N5        30.10R WCI  31

$$

MOZ041-047>049-056>058-063>065-088>090-097-271100-
...EASTERN AND SOUTHERN MISSOURI...

CITY           SKY/WX    TMP DP  RH WIND       PRES   REMARKS
ST. LOUIS INTL PTCLDY    43  33  68 CALM      30.05S
SPIRIT OF STL  PTCLDY    38  36  92 CALM      30.04S
COLUMBIA       MOCLDY    42  36  79 NE7       30.05R
JEFFERSON CITY CLOUDY    44  36  73 NE5       30.05R
MEXICO         PTCLDY    43  41  93 N5        30.06F
HANNIBAL       CLEAR     43  34  70 CALM      30.08R
ROLLA          CLOUDY    45  34  65 NE12      30.00R
LEBANON        CLOUDY    43  36  75 CALM      30.02R
OSAGE BEACH    CLOUDY    45  34  65 E5        30.02S
SPRINGFIELD    CLOUDY    48  36  63 E9        30.00R
BRANSON        CLOUDY    48  39  71 CALM      30.00R
NEVADA         CLOUDY    43  39  87 CALM      30.06R
JOPLIN         CLOUDY    47  41  80 NE5       30.02R
WEST PLAINS    CLOUDY    45  35  68 NE8       30.00R

$$

IAZ060-094-KSZ022-034>040-054-083-096-NEZ052-066-093-271100-
...KANSAS...SOUTHEAST NEBRASKA AND IOWA...

CITY           SKY/WX    TMP DP  RH WIND       PRES   REMARKS
TOPEKA         CLOUDY    44  37  76 N6        30.07R
MANHATTAN      CLOUDY    46  37  71 NE7       30.08R
EMPORIA        CLOUDY    46  37  71 E5        30.06R
CHANUTE        CLOUDY    49  39  68 NE7       30.02R
WICHITA        CLOUDY    52  38  58 NE14      29.99S
OMAHA          PTCLDY    39  35  86 NW6       30.15R WCI  35
LINCOLN        CLEAR     35  31  85 N6        30.15R WCI  30
FALLS CITY     PTCLDY    42  32  67 E5        30.11R
LAMONI         CLEAR     41  32  70 N5        30.11R
DES MOINES     CLEAR     41  32  70 NW3       30.13R

$$



USA.gov is the U.S. government's official web portal to all federal, state and local government web resources and services.